OK2MD-6 Weather Reports


time (UTC)temp
C
wind
direction
speed
KPH
gust
KPH
rain 1hr
cm
rain 24hr
cm
rain mn
cm
humidity
%
barometer
mb
20260503034024 5 0 0.0 0.0 0.00 0.00 0.00 86 1018.8
20260503032003 5 0 0.0 0.0 0.00 0.00 0.00 86 1018.9
20260503030003 5 0 0.0 0.0 0.00 0.00 0.00 84 1018.8
20260503024003 5 0 0.0 0.0 0.00 0.00 0.00 83 1018.8
20260503022003 6 184 0.0 1.6 0.00 0.00 0.00 82 1018.6
20260503020024 6 0 0.0 0.0 0.00 0.00 0.00 82 1018.7
20260503014004 6 0 0.0 0.0 0.00 0.00 0.00 80 1018.6
20260503012026 7 184 0.0 1.6 0.00 0.00 0.00 78 1018.3
20260503010005 7 184 0.0 3.2 0.00 0.00 0.00 78 1018.3
20260503004025 7 184 0.0 1.6 0.00 0.00 0.00 77 1018.4
20260503002003 7 184 0.0 1.6 0.00 0.00 0.00 76 1018.5
20260503000003 8 184 0.0 1.6 0.00 0.00 0.00 75 1018.5
20260502234004 8 184 0.0 3.2 0.00 0.00 0.00 74 1018.7
20260502232005 8 184 0.0 1.6 0.00 0.00 0.00 73 1018.7
20260502230004 8 184 0.0 1.6 0.00 0.00 0.00 73 1018.8
20260502224024 9 0 0.0 0.0 0.00 0.00 0.00 72 1019.1
20260502222026 9 184 0.0 1.6 0.00 0.00 0.00 72 1019.2
20260502220003 10 184 0.0 3.2 0.00 0.00 0.00 71 1019.4
20260502214003 10 184 0.0 3.2 0.00 0.00 0.00 69 1019.2
20260502212003 10 184 0.0 3.2 0.00 0.00 0.00 67 1019.5
20260502210003 10 184 0.0 1.6 0.00 0.00 0.00 66 1019.7
20260502204003 10 184 0.0 1.6 0.00 0.00 0.00 66 1019.7
20260502202026 11 184 0.0 1.6 0.00 0.00 0.00 64 1019.7
20260502200003 11 184 0.0 3.2 0.00 0.00 0.00 62 1019.8
20260502194024 12 184 0.0 3.2 0.00 0.00 0.00 60 1019.7
20260502192003 13 184 0.0 1.6 0.00 0.00 0.00 59 1019.8
20260502190005 13 184 0.0 1.6 0.00 0.00 0.00 59 1019.7
20260502184003 15 184 0.0 3.2 0.00 0.00 0.00 57 1019.7
20260502182004 16 184 0.0 1.6 0.00 0.00 0.00 53 1019.6
20260502164003 23 184 0.0 8.0 0.00 0.00 0.00 31 1019.9
20260502162003 23 184 3.2 8.0 0.00 0.00 0.00 29 1020.0
20260502152003 24 184 3.2 8.0 0.00 0.00 0.00 31 1020.5
20260502122004 23 176 3.2 12.9 0.00 0.00 0.00 29 1022.3
20260502114006 23 175 1.6 9.7 0.00 0.00 0.00 34 1022.7
20260502112004 23 175 1.6 8.0 0.00 0.00 0.00 34 1023.1
20260502110004 22 181 1.6 4.8 0.00 0.00 0.00 33 1023.1
20260502104004 22 165 3.2 12.9 0.00 0.00 0.00 36 1023.3
20260502102006 21 158 3.2 11.3 0.00 0.00 0.00 34 1023.6
20260502070004 16 358 1.6 6.4 0.00 0.00 0.00 56 1024.9
20260502064004 15 340 0.0 3.2 0.00 0.00 0.00 60 1024.9
20260502062027 14 315 0.0 1.6 0.00 0.00 0.00 62 1025.0
20260502060006 13 315 1.6 6.4 0.00 0.00 0.00 64 1025.0
20260502054004 11 315 0.0 3.2 0.00 0.00 0.00 71 1024.9
20260502052004 10 0 0.0 0.0 0.00 0.00 0.00 77 1024.7
20260502050025 8 315 0.0 3.2 0.00 0.00 0.00 82 1024.6
20260502044004 7 315 0.0 3.2 0.00 0.00 0.00 86 1024.6
20260502042004 5 315 0.0 1.6 0.00 0.00 0.00 90 1024.6
20260502040025 5 315 0.0 1.6 0.00 0.00 0.00 89 1024.4